Location: Denain
(50.3293°N, 3.3943°E)
Time: 13:45:51
(UTC+00:00)

Daily predictions for brighter satellites

Satellite Brightness Start Highest point End
(mag) Time Altitude Azimuth Time Altitude Azimuth Time Altitude Azimuth
Cosmos 1408 Rocket 3.7 20:20:32 10° N 20:25:00 68° E 20:29:25 10° SSE
Cosmos 1733 3.8 20:23:37 10° N 20:26:55 37° ENE 20:30:10 10° SE
Meteor 1-27 Rocket 4.2 20:22:04 10° SSE 20:27:12 42° E 20:32:25 10° NNE
CZ-4C R/B 3.3 20:24:12 10° NNE 20:28:06 77° ESE 20:32:08 10° S
Cosmos 1340 Rocket 3.7 20:26:42 10° SSE 20:30:14 31° E 20:33:47 10° NNE
IRS-1A Rocket 4.3 20:26:00 10° SSE 20:31:35 84° ENE 20:37:08 10° NNW
SPOT 5 2.8 20:31:35 10° S 20:36:02 75° WSW 20:40:23 10° NNW
Cosmos 1151 Rocket 4.0 20:33:19 10° SSE 20:37:05 30° E 20:40:51 10° NNE
Ariane Rocket 3.2 20:34:37 10° SSE 20:39:36 59° ENE 20:44:37 10° N
Cosmos 1726 2.8 20:40:52 10° NNW 20:43:51 42° W 20:46:48 10° SSW
USA 234 4.0 20:39:52 10° ENE 20:46:16 58° NNW 20:52:39 10° W
Cosmos 1833 Rocket 4.4 20:43:57 10° SE 20:46:50 14° E 20:49:43 10° ENE
SPOT 3 Rocket 3.7 20:42:24 10° SSE 20:47:28 63° ENE 20:52:33 10° N
Cosmos 1818 4.4 20:44:45 10° S 20:49:27 31° ESE 20:54:13 10° NE
IRS-1C Rocket 4.4 20:44:55 10° S 20:50:09 67° WSW 20:55:25 10° NNW
Cosmos 2279 Rocket 4.4 20:44:36 10° NNW 20:50:46 67° W 20:56:53 10° S
Cosmos 2369 Rocket 4.4 20:47:50 10° NW 20:51:44 20° W 20:55:39 10° SW
Cosmos 1805 3.8 20:48:17 10° N 20:51:48 39° ENE 20:54:54 12° SE
Cosmos 1656 4.0 20:46:48 10° NNW 20:52:10 54° NE 20:57:19 11° SE
Nadezhda 4 Rocket 4.2 20:47:37 10° S 20:53:40 58° E 20:59:49 10° NNE
Okean-O 4.1 20:50:15 10° SSW 20:54:15 34° W 20:58:17 10° NNW
Cosmos 1603 3.9 20:48:37 10° SSW 20:54:18 83° WNW 21:00:05 10° NNE
USA 245 2.2 20:52:10 11° S 20:54:23 71° WSW 20:57:00 10° NNW
ERS-1 Rocket 3.1 20:49:55 10° SSE 20:54:57 80° WSW 21:00:01 10° NNW
Okean 1 3.2 20:51:34 10° S 20:55:26 89° E 20:59:21 10° N
Cosmos 614 Rocket 4.3 20:55:03 10° S 21:00:01 48° ESE 21:05:02 10° NNE
Cosmos 1500 Rocket 3.7 20:56:49 10° NNW 21:01:08 71° W 21:05:23 10° S
Cosmos 44 Rocket 4.4 20:56:41 10° NNW 21:01:22 38° NE 21:05:53 10° ESE
Cosmos 1975 3.4 20:59:19 10° N 21:03:04 41° ENE 21:06:07 14° SE
SL-8 R/B 3.6 21:05:44 10° W 21:10:28 71° S 21:15:13 10° E
USA 59 Rocket 0.4 21:06:51 10° NW 21:10:41 61° SW 21:15:04 14° SSE
Cosmos 1805 Rocket 3.9 21:08:07 10° NNW 21:12:30 66° W 21:16:52 10° S
NOSS 2-1 (E) 3.9 21:09:40 10° NW 21:13:30 58° SW 21:17:49 15° SSE
Sich 1 3.4 21:09:11 10° NNW 21:13:32 63° W 21:17:50 10° S
Meteor 1-19 Rocket 4.3 21:07:47 10° S 21:13:38 89° WNW 21:19:20 10° NNE
Cosmos 1536 4.3 21:12:45 10° NNW 21:16:16 32° W 21:19:47 10° SSW
Cosmos 1633 Rocket 3.7 21:12:19 10° N 21:16:34 43° ENE 21:19:46 16° SE
Cosmos 1666 Rocket 3.8 21:17:19 10° N 21:21:34 57° ENE 21:24:43 17° SSE
GEOS 3 Rocket 4.5 21:18:59 10° ENE 21:23:25 28° ESE 21:27:03 13° S
Spot 1 4.1 21:20:25 10° NNE 21:24:30 58° ESE 21:28:15 13° S
NOSS 2-1 (D) 4.3 21:22:47 10° NW 21:26:31 44° SW 21:30:23 16° SSE
Terra 2.6 21:22:40 10° S 21:27:12 47° W 21:31:47 10° NNW
Cosmos 2026 Rocket 4.1 21:26:45 13° S 21:32:20 61° E 21:38:27 10° NNE
Cosmos 1992 Rocket 4.1 21:27:56 10° NNW 21:33:10 76° WSW 21:37:11 17° SSE
Cosmos 1697 Rocket 3.1 21:37:21 10° NNW 21:42:55 57° NE 21:47:10 17° SE
NOSS 3-3 (A) 3.8 21:42:32 10° SSW 21:47:57 66° SE 21:54:19 10° NE
Cosmos 1340 4.4 21:45:58 10° NW 21:48:42 23° W 21:51:26 10° SW
USA 281 3.3 21:44:56 17° SSE 21:50:08 75° WSW 21:56:46 10° NNW
MOS 1 Rocket 4.4 21:45:42 11° SSW 21:50:28 46° W 21:55:39 10° NNW
Cosmos 1980 Rocket 3.3 21:47:10 10° NNW 21:52:30 38° NE 21:57:19 12° ESE
Cosmos 1707 4.2 21:52:01 18° ESE 21:53:05 20° E 21:55:48 10° NE
Orbus 7S? 4.1 21:48:06 10° SSW 21:53:06 33° SE 21:56:03 10° ENE
ALOS 2 4.5 21:51:27 11° ESE 21:54:27 21° ENE 21:57:44 10° NNE
Lacrosse 4 Rocket 2.3 21:52:34 10° NW 21:56:22 38° WSW 21:58:43 20° S
Lacrosse 5 rocket 2.5 21:53:29 10° NW 21:57:33 43° NNE 22:01:29 10° E
Cosmos 1140 Rocket 4.2 21:55:41 22° SSE 21:58:21 35° ESE 22:03:05 10° NE
NOSS 3-4 (A) 4.0 21:56:44 10° NW 22:03:25 73° NE 22:10:02 15° SE
NOSS 3-4 (C) 4.0 21:56:50 10° NW 22:03:31 73° NE 22:10:09 15° SE
Meteor 2-4 Rocket 4.0 21:58:17 10° SSW 22:04:07 77° WNW 22:10:05 10° N
H-2A R/B 3.3 22:02:00 21° SE 22:04:24 40° ENE 22:08:26 10° N
Cosmos 1066 Rocket 4.4 22:00:45 19° S 22:05:00 68° E 22:10:50 10° NNE
Cosmos 1553 Rocket 4.0 22:00:04 10° N 22:06:10 72° ENE 22:10:15 22° SSE
Cosmos 1626 2.0 22:06:08 23° SSW 22:08:00 65° WNW 22:11:13 10° N
Cosmos 1842 3.8 22:07:26 28° SE 22:08:42 38° E 22:12:08 10° NNE
BREEZE-M DEB (TANK) 1.6 22:06:48 10° W 22:08:52 69° S 22:10:18 23° ESE
BREEZE-M DEB (TANK) 4.2 22:11:16 11° SSW 22:15:30 46° SE 22:30:46 10° ENE
CZ-2C R/B 3.6 22:14:50 10° NNE 22:19:18 67° ESE 22:21:42 26° S
KORONAS-FOTON 4.1 22:18:54 32° SE 22:20:09 46° E 22:23:44 10° NNE
ARIANE 5 R/B 2.5 22:18:32 28° SSE 22:20:47 89° ENE 22:25:06 10° NNW
NOSS 3-3 (C) 3.9 22:15:32 10° SW 22:21:02 86° NW 22:27:39 10° NE
Cosmos 1674 2.5 22:21:29 36° SSE 22:22:41 63° E 22:26:10 10° NNE
Cosmos 2285 Rocket 4.3 22:21:35 23° S 22:25:19 50° ESE 22:31:26 10° NNE
Cosmos 1092 Rocket 4.5 22:21:58 11° SSW 22:27:57 59° WNW 22:34:15 10° N
USA 234 4.1 22:22:29 10° ENE 22:28:46 51° N 22:35:03 10° WNW
Cosmos 1766 3.7 22:25:16 10° NNW 22:28:55 50° W 22:30:39 27° SSW
Cosmos 1833 Rocket 2.6 22:25:16 16° SSW 22:29:49 80° ESE 22:35:28 10° NNE
Cosmos 1763 Rocket 4.2 22:24:57 10° NNW 22:30:08 49° ENE 22:33:32 20° SE
SL-16 R/B 4.1 22:26:09 10° NNW 22:30:43 24° NE 22:35:16 10° E
Cosmos 1328 Rocket 4.3 22:27:52 15° SW 22:31:13 47° WNW 22:35:25 10° N
Cosmos 1818 4.1 22:27:21 10° SW 22:32:45 60° NW 22:38:12 10° NE
H-2A R/B 4.1 22:33:48 10° NE 22:36:25 15° E 22:37:41 14° ESE
Cosmos 407 Rocket 3.8 22:34:46 27° SSE 22:37:17 50° ESE 22:42:21 10° NNE
Cosmos 724 4.3 22:34:15 19° SSW 22:38:28 62° ESE 22:44:13 10° NE
Cosmos 1515 Rocket 3.5 22:38:30 27° SSW 22:40:49 78° W 22:45:10 10° N
Cosmos 2082 Rocket 3.1 22:38:49 25° SE 22:41:00 33° ESE 22:46:03 10° NE
Cosmos 2266 Rocket 4.2 22:38:38 26° SSE 22:42:11 60° E 22:48:22 10° NNE
Cosmos 1470 2.6 22:38:43 10° NNW 22:42:25 75° W 22:43:42 38° S
BREEZE-M DEB (TANK) 3.4 22:42:14 37° S 22:42:53 42° SSE 22:48:53 10° ENE
Cosmos 44 Rocket 3.8 22:38:14 10° NW 22:42:57 46° WSW 22:44:56 29° S
Cosmos 1733 Rocket 4.5 22:42:08 10° N 22:45:55 28° ENE 22:48:08 19° ESE
Meteor 1-13 Rocket 4.4 22:46:34 27° S 22:49:50 64° E 22:55:37 10° NNE
Cosmos 1869 Rocket 3.5 22:47:37 10° N 22:52:00 78° E 22:53:51 34° SSE
SL-8 R/B 4.0 22:48:07 10° W 22:52:37 43° SSW 22:54:05 33° SSE
MINOTAUR 4 R/B 4.4 22:50:16 10° N 22:53:08 45° WNW 22:54:07 31° WSW
ATLAS 2AS CENTAUR R/B 4.5 22:53:21 10° NW 22:59:32 31° NNE 23:05:29 10° E
Cosmos 2228 Rocket 4.1 22:58:02 26° SE 22:59:37 34° E 23:03:42 10° NNE
Meteor 2-10 Rocket 4.1 22:54:23 10° N 23:00:09 59° ENE 23:03:24 26° SE
Cosmos 1655 Rocket 4.3 22:57:28 27° SSE 23:00:58 59° E 23:07:15 10° NNE
GEOS 3 Rocket 3.9 22:56:37 10° NE 23:01:48 70° NW 23:06:53 10° SW
Cosmos 2251 Rocket 3.5 22:59:14 29° S 23:01:57 72° ESE 23:07:14 10° NNE
PSLV R/B 4.4 23:00:53 10° N 23:04:51 54° WNW 23:07:00 25° SW
Cosmos 1908 3.3 23:02:05 10° NNW 23:05:36 58° W 23:06:34 41° SSW
Meteor 1-22 Rocket 4.1 23:01:09 10° NNW 23:06:31 84° ENE 23:09:19 30° SSE
Cosmos 1346 Rocket 3.9 23:08:57 10° N 23:12:32 34° ENE 23:14:08 24° ESE
Cosmos 1933 Rocket 4.5 23:11:14 10° NNW 23:15:17 38° W 23:17:09 25° SW
Cosmos 2278 4.4 23:11:00 10° NNW 23:16:36 50° NE 23:21:02 16° SE
Cosmos 1400 Rocket 3.1 23:15:48 38° SE 23:16:54 51° E 23:20:45 10° NNE
GP-B 3.4 23:12:35 10° N 23:16:56 54° E 23:18:36 34° SSE
Meteor 1-15 Rocket 4.2 23:13:47 10° NNW 23:19:25 78° W 23:22:13 31° S
Cosmos 2322 Rocket 3.6 23:21:23 10° NNW 23:26:31 34° NE 23:31:39 10° ESE
Cosmos 1697 Rocket 3.9 23:21:50 10° NW 23:26:33 28° WSW 23:28:53 21° SW
Cosmos 1862 Rocket 4.1 23:26:10 32° SE 23:27:36 45° E 23:31:46 10° NNE
Cosmos 1707 3.9 23:26:18 23° WSW 23:27:53 34° WNW 23:31:15 10° N
ALOS 2 2.9 23:28:50 35° SSW 23:30:26 55° W 23:34:46 10° NNW
Cosmos 1356 Rocket 4.0 23:29:58 33° SE 23:31:09 43° E 23:35:06 10° NNE
USA 267 4.1 23:28:10 10° ENE 23:33:50 31° SE 23:35:51 26° SSE
Cosmos 1607 4.5 23:27:57 10° SW 23:34:21 62° NW 23:40:49 10° NE
In-Cosmos 22 4.4 23:31:11 26° SSW 23:34:31 70° WNW 23:40:13 10° N
PSLV R/B 3.6 23:30:47 10° NNE 23:35:16 68° ESE 23:36:50 38° S
Cosmos 1300 2.4 23:31:50 10° N 23:35:26 90° WNW 23:36:14 52° S
Cosmos 1441 Rocket 4.0 23:32:14 10° NNW 23:35:32 35° W 23:36:17 31° WSW
Lacrosse 5 rocket 1.3 23:31:57 10° WNW 23:36:04 60° SW 23:37:07 43° SSE
Cosmos 1980 Rocket 2.7 23:31:12 10° NW 23:36:39 47° WSW 23:39:03 30° SSW
Cosmos 2333 Rocket 3.8 23:34:00 10° NNW 23:39:07 32° NE 23:44:14 10° ESE
H-2A R/B 4.0 23:37:59 20° SW 23:39:28 25° W 23:43:01 10° NW
Meteor 1-4 Rocket 4.2 23:41:04 17° E 23:41:14 17° E 23:43:14 10° NE
Cosmos 1953 3.5 23:40:07 10° N 23:43:42 34° ENE 23:45:27 23° ESE
SL-14 R/B 3.1 23:48:27 45° SSW 23:49:33 82° W 23:53:24 10° N
Cosmos 1707 Rocket 3.5 23:49:21 38° S 23:51:04 89° WNW 23:55:33 10° N
Cosmos 841 Rocket 3.6 23:47:39 10° NNW 23:52:55 75° ENE 23:55:58 26° SSE
RESURS DK-1 4.3 23:49:58 10° NNW 23:53:29 27° NE 23:56:57 10° ESE
